This demonstration page uses our WeatherBlox Daily Observations layout. Learn more.

Left ArrowRight Arrow

Hourly Observations for September 2, 2018

Temp ( °F °C ) Dew Point ( °F °C ) Humidity (%) Winds ( mph kmh ) Pressure ( in mb ) Visibility ( mi km ) Precip ( " mm )
1:17 am 01:17 Mostly Clear with Nearby Thunderstorms 68 20 N/A N/A undefined N/A 29.88 1012 N/A 0.00 0.00
1:30 am 01:30 Mostly Clear with Thunderstorms 69 20.6 65 18.3 87 87 WSW 6 9 29.91 1013 10 16 0.00 0.00
1:50 am 01:50 Cloudy with Strong Thunderstorms 70 21 66 19 88 88 WNW 9 15 29.91 1013 3 4 0.00 0.00
1:53 am 01:53 Cloudy with Strong Thunderstorms 69 20.6 66 18.9 90 90 NW 9 15 29.91 1013 3 5 0.00 0.00
2:03 am 02:03 Cloudy with Strong Thunderstorms 68 20 66 18.9 93 93 WNW 14 22 29.91 1013 2 3 0.14 3.56
2:24 am 02:24 Cloudy with Nearby Thunderstorms 67 19.4 66 18.9 97 97 NW 12 19 29.91 1013 3 4 0.31 7.87
2:30 am 02:30 Cloudy with Thunderstorms 66 18.9 65 18.3 96 96 NW 13 20 29.94 1014 3 5 0.32 8.13
2:50 am 02:50 Cloudy with Nearby Thunderstorms 66 19 66 19 100 100 NNW 13 20 29.94 1014 5 8 0.40 10.16
2:53 am 02:53 Cloudy with Nearby Thunderstorms 66 18.9 66 18.9 100 100 NNW 13 20 29.92 1013 7 11 0.40 10.16
3:33 am 03:33 Partly Cloudy with Light Rain 66 18.9 65 18.3 96 96 N 12 19 29.91 1013 10 16 0.00 0.03
3:53 am 03:53 Mostly Cloudy 66 18.9 65 18.3 96 96 N 13 20 29.88 1012 10 16 0.00 0.03
4:53 am 04:53 Cloudy 68 20 66 18.9 93 93 NNE 5 7 29.83 1010 10 16 0.04 1.02
5:53 am 05:53 Clear 68 20 68 20 100 100 S 6 9 29.82 1010 10 16 0.00 0.00
6:53 am 06:53 Clear 68 20 66 18.9 93 93 SSW 6 9 29.82 1010 10 16 0.00 0.00
7:53 am 07:53 Sunny 68 20 67 19.4 96 96 SSW 6 9 29.84 1010 10 16 0.00 0.00
8:53 am 08:53 Sunny 69 20.6 67 19.4 93 93 W 7 11 29.83 1010 10 16 0.00 0.00
9:53 am 09:53 Sunny 72 22.2 68 20 87 87 NW 6 9 29.82 1010 10 16 0.00 0.00
10:53 am 10:53 Sunny 74 23.3 66 18.9 76 76 ESE 6 9 29.84 1011 10 16 0.00 0.00
11:53 am 11:53 Sunny 79 26.1 67 19.4 67 67 E 6 9 29.83 1010 10 16 0.00 0.00
12:53 pm 12:53 Mostly Sunny 80 26.7 65 18.3 60 60 Calm 29.83 1010 10 16 0.00 0.00
1:53 pm 13:53 Mostly Cloudy 82 27.8 65 18.3 56 56 ESE 7 11 29.85 1011 10 16 0.00 0.00
2:53 pm 14:53 Sunny 84 28.9 63 17.2 49 49 ESE 7 11 29.83 1010 10 16 0.00 0.00
3:53 pm 15:53 Sunny 86 30 60 15.6 42 42 E 5 7 29.79 1009 10 16 0.00 0.00
5:53 pm 17:53 Sunny 87 30.6 60 15.6 40 40 SW 5 7 29.76 1008 10 16 0.00 0.00
6:53 pm 18:53 Sunny 87 30.6 59 15 39 39 ESE 6 9 29.75 1008 10 16 0.00 0.00
7:53 pm 19:53 Sunny 84 28.9 60 15.6 44 44 SE 8 13 29.78 1008 10 16 0.00 0.00
8:53 pm 20:53 Clear 81 27.2 63 17.2 54 54 SE 7 11 29.80 1009 10 16 0.00 0.00
9:53 pm 21:53 Clear 79 26.1 63 17.2 58 58 ESE 8 13 29.84 1010 10 16 0.00 0.00
10:53 pm 22:53 Clear 76 24.4 64 17.8 67 67 ESE 7 11 29.85 1011 10 16 0.00 0.00
11:53 pm 23:53 Clear 74 23.3 65 18.3 74 74 ESE 8 13 29.86 1011 10 16 0.00 0.00

Powered by AerisWeather